Time,TemperatureF,DewpointF,PressureIn,WindDirection,WindDirectionDegrees,WindSpeedMPH,WindSpeedGustMPH,Humidity,HourlyPrecipIn,Conditions,Clouds,dailyrainin,SoftwareType,DateUTC
2017-03-22 00:25:00,45.0,45.0,-100.00,SSW,200,19.0,26.0,100,-99.99,,,-99.99,,2017-03-22 07:25:00,
2017-03-22 00:35:00,45.0,45.0,-100.00,SSW,200,19.0,26.0,100,-99.99,,,-99.99,,2017-03-22 07:35:00,
2017-03-22 00:54:00,45.0,45.0,-100.00,SSW,200,19.0,26.0,100,-99.99,,,-99.99,,2017-03-22 07:54:00,
2017-03-22 01:24:00,44.0,44.0,-100.00,SSW,202,19.0,-999.0,100,-99.99,,,-99.99,,2017-03-22 08:24:00,
2017-03-22 02:25:00,44.0,44.0,-100.00,SSW,197,18.0,26.0,100,-99.99,,,-99.99,,2017-03-22 09:25:00,
2017-03-22 02:35:00,44.0,44.0,-100.00,SSW,197,18.0,-999.0,100,-99.99,,,-99.99,,2017-03-22 09:35:00,
2017-03-22 03:24:00,43.0,43.0,-100.00,SSW,199,16.0,-999.0,100,-99.99,,,-99.99,,2017-03-22 10:24:00,
2017-03-22 03:34:00,43.0,43.0,-100.00,SSW,199,16.0,-999.0,100,-99.99,,,-99.99,,2017-03-22 10:34:00,
2017-03-22 05:25:00,42.0,42.0,-100.00,SSW,203,15.0,23.0,100,-99.99,,,-99.99,,2017-03-22 12:25:00,
2017-03-22 06:25:00,41.0,41.0,-100.00,SSW,204,18.0,27.0,100,-99.99,,,-99.99,,2017-03-22 13:25:00,
2017-03-22 06:37:00,41.0,41.0,-100.00,SSW,204,18.0,-999.0,100,-99.99,,,-99.99,,2017-03-22 13:37:00,
2017-03-22 06:54:00,41.0,41.0,-100.00,SSW,204,18.0,27.0,100,-99.99,,,-99.99,,2017-03-22 13:54:00,
2017-03-22 07:25:00,41.0,41.0,-100.00,SSW,202,21.0,-999.0,100,-99.99,,,-99.99,,2017-03-22 14:25:00,
2017-03-22 07:35:00,41.0,41.0,-100.00,SSW,202,21.0,29.0,100,-99.99,,,-99.99,,2017-03-22 14:35:00,
2017-03-22 07:54:00,41.0,41.0,-100.00,SSW,202,21.0,29.0,100,-99.99,,,-99.99,,2017-03-22 14:54:00,
2017-03-22 08:35:00,42.0,42.0,-100.00,SSW,198,18.0,-999.0,100,-99.99,,,-99.99,,2017-03-22 15:35:00,
2017-03-22 09:54:00,42.0,42.0,-100.00,SSW,200,18.0,26.0,100,-99.99,,,-99.99,,2017-03-22 16:54:00,
2017-03-22 10:35:00,42.0,42.0,-100.00,SSW,203,15.0,24.0,100,-99.99,,,-99.99,,2017-03-22 17:35:00,
2017-03-22 11:25:00,43.0,43.0,-100.00,SSW,203,14.0,22.0,100,-99.99,,,-99.99,,2017-03-22 18:25:00,
2017-03-22 11:45:00,43.0,43.0,-100.00,SSW,203,14.0,22.0,100,-99.99,,,-99.99,,2017-03-22 18:45:00,
2017-03-22 13:25:00,43.0,43.0,-100.00,SSW,193,13.0,25.0,100,-99.99,,,-99.99,,2017-03-22 20:25:00,
2017-03-22 13:47:00,43.0,43.0,-100.00,SSW,193,13.0,25.0,100,-99.99,,,-99.99,,2017-03-22 20:47:00,
2017-03-22 14:36:00,47.0,47.0,-100.00,SSW,194,14.0,27.0,100,-99.99,,,-99.99,,2017-03-22 21:36:00,
2017-03-22 14:57:00,47.0,47.0,-100.00,SSW,194,14.0,27.0,100,-99.99,,,-99.99,,2017-03-22 21:57:00,
2017-03-22 15:26:00,47.0,41.0,-100.00,SSW,193,13.0,28.0,79,-99.99,,,-99.99,,2017-03-22 22:26:00,
2017-03-22 15:45:00,47.0,41.0,-100.00,SSW,193,13.0,28.0,79,-99.99,,,-99.99,,2017-03-22 22:45:00,
2017-03-22 17:45:00,39.0,38.0,-100.00,NNW,340,4.0,20.0,95,-99.99,,,-99.99,,2017-03-23 00:45:00,
2017-03-22 18:45:00,40.0,38.0,-100.00,NW,309,5.0,9.0,94,-99.99,,,-99.99,,2017-03-23 01:45:00,